sat.trackr.live / text

‹ back to catalog

ONEWEB-0317

NORAD 49103 · 2021-075AE

PAYLOAD ACTIVE UNKNOWN

§ Identity

Operator
Country
UK
Launch date
2021-08-21
Launch site
TYMSC
Launch vehicle
Mass (kg)
RCS (m²)

Purposes: comms

External: N2YO · Heavens-Above · Gunter

§ Orbital elements

Epoch: 2026-09-13T04:33:01.006272Z

Period
109.72 min
Inclination
87.8984°
Eccentricity
0.0001577
Mean motion
13.12446069 rev/d
Perigee alt
1,212.5 km
Apogee alt
1,214.9 km
Semi-major
7,591.8 km
B*
3.3337e-4
RAAN
333.1959°
Arg perigee
82.8140°
Mean anomaly
277.3168°
Rev number
24,673

§ Raw data

ONEWEB-03171 49103U 21075AE  26256.18959498  .00000133  00000+0  33337-3 0  99942 49103  87.8984 333.1959 0001577  82.8140 277.3168 13.12446069246731

JSON: /api/v1/satellites/49103 · /tle

For live sub-satellite position, see the globe view (requires WebGL).

§ Visibility from observer

Set your observer location to see the next 7 days of passes ≥ 10°. The values pass through the URL so the page stays shareable.

No JS? Fill the form by hand. The geolocation button needs JavaScript.